N36BG SVTM-SYCJ

Flight info

Callsign N36BG
Flight time 1h 31m
Altitude 3500
Route DCT
Aircraft BE36/L-BDFGLORY/S

Departure

Time 2026-04-27 00:20
Airport Tumeremo Airport (SVTM)

Arrival

Time 2026-04-27 01:52
Airport Cheddi Jagan International Airport (SYCJ)
Time Latitude Longitude Altitude Speed Heading
2026-04-27 00:10 7.24341 -61.54012 110 ft 0 kts 178°
2026-04-27 00:18 7.24340 -61.54012 110 ft 1 kts 179°
2026-04-27 00:18 7.24333 -61.54010 110 ft 5 kts 152°
2026-04-27 00:18 7.24361 -61.54009 115 ft 15 kts 289°
2026-04-27 00:18 7.24415 -61.54098 115 ft 12 kts 334°
2026-04-27 00:19 7.24441 -61.54104 116 ft 0 kts 68°
2026-04-27 00:19 7.24471 -61.54022 112 ft 42 kts 70°
2026-04-27 00:19 7.24638 -61.53563 112 ft 91 kts 70°
2026-04-27 00:20 7.24883 -61.52974 441 ft 85 kts 64°
2026-04-27 00:20 7.25134 -61.52443 879 ft 84 kts 64°
2026-04-27 00:20 7.25389 -61.51905 1238 ft 85 kts 64°
2026-04-27 00:20 7.25634 -61.51391 1616 ft 80 kts 65°
2026-04-27 00:21 7.25721 -61.50880 1962 ft 78 kts 107°
2026-04-27 00:21 7.25527 -61.50371 2252 ft 78 kts 104°
2026-04-27 00:21 7.25361 -61.49850 2540 ft 78 kts 104°
2026-04-27 00:21 7.25205 -61.49324 2814 ft 79 kts 103°
2026-04-27 00:22 7.25054 -61.48790 3090 ft 79 kts 103°
2026-04-27 00:22 7.24907 -61.48259 3383 ft 79 kts 103°
2026-04-27 00:22 7.24754 -61.47682 3507 ft 97 kts 103°
2026-04-27 00:22 7.24566 -61.46948 3514 ft 117 kts 103°
2026-04-27 00:23 7.24356 -61.46123 3515 ft 125 kts 103°
2026-04-27 00:23 7.24140 -61.45270 3515 ft 130 kts 103°
2026-04-27 00:23 7.23921 -61.44375 3516 ft 134 kts 103°
2026-04-27 00:23 7.23694 -61.43445 3513 ft 136 kts 103°
2026-04-27 00:24 7.23469 -61.42527 3516 ft 138 kts 103°
2026-04-27 00:24 7.23236 -61.41588 3514 ft 139 kts 103°
2026-04-27 00:24 7.22996 -61.40636 3516 ft 141 kts 103°
2026-04-27 00:24 7.22754 -61.39675 3516 ft 142 kts 103°
2026-04-27 00:25 7.22509 -61.38712 3513 ft 142 kts 103°
2026-04-27 00:25 7.22261 -61.37751 3511 ft 142 kts 103°
2026-04-27 00:25 7.22013 -61.36788 3511 ft 142 kts 103°
2026-04-27 00:25 7.21766 -61.35822 3511 ft 143 kts 104°
2026-04-27 00:26 7.21538 -61.34847 3509 ft 143 kts 102°
2026-04-27 00:26 7.21296 -61.33872 3508 ft 144 kts 103°
2026-04-27 00:26 7.21048 -61.32890 3513 ft 145 kts 103°
2026-04-27 00:26 7.20799 -61.31909 3512 ft 143 kts 103°
2026-04-27 00:27 7.20559 -61.30937 3513 ft 143 kts 103°
2026-04-27 00:27 7.20318 -61.29963 3512 ft 143 kts 103°
2026-04-27 00:27 7.20077 -61.28991 3511 ft 143 kts 103°
2026-04-27 00:27 7.19831 -61.28019 3510 ft 143 kts 103°
2026-04-27 00:28 7.19584 -61.27048 3509 ft 143 kts 103°
2026-04-27 00:28 7.19334 -61.26074 3515 ft 144 kts 103°
2026-04-27 00:28 7.19087 -61.25094 3513 ft 144 kts 103°
2026-04-27 00:28 7.18839 -61.24117 3511 ft 144 kts 103°
2026-04-27 00:29 7.18594 -61.23144 3512 ft 143 kts 103°
2026-04-27 00:29 7.18351 -61.22172 3512 ft 143 kts 103°
2026-04-27 00:29 7.18112 -61.21199 3514 ft 143 kts 103°
2026-04-27 00:29 7.17873 -61.20223 3518 ft 144 kts 103°
2026-04-27 00:30 7.17632 -61.19248 3515 ft 143 kts 103°
2026-04-27 00:30 7.17390 -61.18275 3514 ft 143 kts 103°
2026-04-27 00:30 7.17149 -61.17301 3514 ft 143 kts 103°
2026-04-27 00:30 7.16908 -61.16327 3513 ft 144 kts 103°
2026-04-27 00:31 7.16666 -61.15350 3514 ft 144 kts 103°
2026-04-27 00:31 7.16424 -61.14373 3513 ft 144 kts 103°
2026-04-27 00:31 7.16184 -61.13407 3514 ft 144 kts 103°
2026-04-27 00:31 7.15942 -61.12434 3512 ft 143 kts 103°
2026-04-27 00:32 7.15700 -61.11463 3512 ft 143 kts 103°
2026-04-27 00:32 7.15458 -61.10490 3512 ft 143 kts 103°
2026-04-27 00:32 7.15216 -61.09516 3513 ft 143 kts 103°
2026-04-27 00:32 7.14975 -61.08542 3514 ft 143 kts 103°
2026-04-27 00:33 7.14734 -61.07569 3514 ft 143 kts 103°
2026-04-27 00:33 7.14493 -61.06601 3517 ft 143 kts 103°
2026-04-27 00:33 7.14255 -61.05629 3513 ft 143 kts 103°
2026-04-27 00:33 7.14017 -61.04658 3514 ft 143 kts 103°
2026-04-27 00:34 7.13781 -61.03687 3510 ft 142 kts 103°
2026-04-27 00:34 7.13542 -61.02721 3512 ft 142 kts 103°
2026-04-27 00:34 7.13309 -61.01755 3509 ft 142 kts 103°
2026-04-27 00:34 7.13076 -61.00786 3512 ft 143 kts 103°
2026-04-27 00:35 7.12843 -60.99817 3515 ft 142 kts 103°
2026-04-27 00:35 7.12603 -60.98847 3515 ft 143 kts 103°
2026-04-27 00:35 7.12362 -60.97873 3515 ft 144 kts 103°
2026-04-27 00:35 7.12122 -60.96900 3515 ft 144 kts 103°
2026-04-27 00:36 7.11878 -60.95918 3516 ft 144 kts 103°
2026-04-27 00:36 7.11634 -60.94943 3518 ft 143 kts 103°
2026-04-27 00:36 7.11391 -60.93968 3515 ft 144 kts 103°
2026-04-27 00:36 7.11152 -60.92988 3514 ft 144 kts 103°
2026-04-27 00:37 7.10912 -60.92008 3515 ft 145 kts 103°
2026-04-27 00:37 7.10671 -60.91022 3515 ft 145 kts 103°
2026-04-27 00:37 7.10426 -60.90039 3515 ft 145 kts 103°
2026-04-27 00:37 7.10183 -60.89056 3515 ft 144 kts 103°
2026-04-27 00:38 7.09943 -60.88076 3515 ft 144 kts 103°
2026-04-27 00:38 7.09703 -60.87097 3514 ft 144 kts 103°
2026-04-27 00:38 7.09460 -60.86123 3516 ft 143 kts 103°
2026-04-27 00:38 7.09216 -60.85150 3516 ft 143 kts 103°
2026-04-27 00:39 7.08976 -60.84176 3518 ft 143 kts 103°
2026-04-27 00:39 7.08735 -60.83201 3511 ft 143 kts 103°
2026-04-27 00:39 7.08497 -60.82241 3515 ft 143 kts 103°
2026-04-27 00:39 7.08257 -60.81268 3512 ft 143 kts 103°
2026-04-27 00:40 7.08018 -60.80292 3513 ft 144 kts 103°
2026-04-27 00:40 7.07783 -60.79314 3513 ft 144 kts 103°
2026-04-27 00:40 7.07548 -60.78337 3513 ft 144 kts 103°
2026-04-27 00:40 7.07312 -60.77358 3516 ft 144 kts 103°
2026-04-27 00:41 7.07073 -60.76377 3516 ft 144 kts 103°
2026-04-27 00:41 7.06834 -60.75395 3512 ft 145 kts 103°
2026-04-27 00:41 7.06600 -60.74408 3512 ft 144 kts 100°
2026-04-27 00:41 7.06488 -60.73408 3511 ft 144 kts 95°
2026-04-27 00:42 7.06389 -60.72404 3512 ft 144 kts 96°
2026-04-27 00:42 7.06262 -60.71401 3516 ft 144 kts 97°
2026-04-27 00:42 7.06121 -60.70401 3514 ft 144 kts 97°
2026-04-27 00:42 7.05979 -60.69403 3513 ft 144 kts 97°
2026-04-27 00:43 7.05839 -60.68405 3511 ft 144 kts 97°
2026-04-27 00:43 7.05700 -60.67405 3514 ft 145 kts 98°
2026-04-27 00:43 7.05559 -60.66403 3511 ft 144 kts 98°
2026-04-27 00:43 7.05419 -60.65403 3515 ft 144 kts 98°
2026-04-27 00:44 7.05281 -60.64408 3515 ft 144 kts 98°
2026-04-27 00:44 7.05142 -60.63411 3513 ft 143 kts 98°
2026-04-27 00:44 7.05003 -60.62423 3511 ft 142 kts 98°
2026-04-27 00:44 7.04864 -60.61438 3513 ft 142 kts 98°
2026-04-27 00:45 7.04727 -60.60451 3515 ft 143 kts 98°
2026-04-27 00:45 7.04589 -60.59456 3514 ft 144 kts 98°
2026-04-27 00:45 7.04448 -60.58457 3517 ft 144 kts 98°
2026-04-27 00:45 7.04308 -60.57459 3514 ft 144 kts 97°
2026-04-27 00:46 7.04169 -60.56462 3514 ft 144 kts 98°
2026-04-27 00:46 7.04033 -60.55474 3515 ft 144 kts 98°
2026-04-27 00:46 7.03892 -60.54476 3516 ft 144 kts 98°
2026-04-27 00:46 7.03752 -60.53478 3515 ft 144 kts 98°
2026-04-27 00:47 7.03611 -60.52478 3517 ft 144 kts 97°
2026-04-27 00:47 7.03472 -60.51478 3510 ft 144 kts 98°
2026-04-27 00:47 7.03333 -60.50475 3510 ft 145 kts 98°
2026-04-27 00:47 7.03192 -60.49477 3511 ft 144 kts 98°
2026-04-27 00:48 7.03051 -60.48476 3511 ft 144 kts 98°
2026-04-27 00:48 7.02913 -60.47492 3509 ft 144 kts 98°
2026-04-27 00:48 7.02774 -60.46496 3513 ft 144 kts 98°
2026-04-27 00:48 7.02635 -60.45498 3512 ft 144 kts 97°
2026-04-27 00:49 7.02493 -60.44495 3511 ft 145 kts 97°
2026-04-27 00:49 7.02353 -60.43495 3513 ft 144 kts 97°
2026-04-27 00:49 7.02213 -60.42497 3511 ft 144 kts 97°
2026-04-27 00:49 7.02074 -60.41496 3509 ft 145 kts 98°
2026-04-27 00:50 7.01935 -60.40493 3514 ft 145 kts 98°
2026-04-27 00:50 7.01649 -60.38482 3514 ft 145 kts 97°
2026-04-27 00:50 7.01509 -60.37473 3511 ft 146 kts 97°
2026-04-27 00:51 7.01368 -60.36464 3511 ft 146 kts 97°
2026-04-27 00:51 7.01226 -60.35453 3511 ft 146 kts 97°
2026-04-27 00:51 7.01083 -60.34441 3510 ft 146 kts 97°
2026-04-27 00:51 7.00942 -60.33428 3509 ft 146 kts 97°
2026-04-27 00:52 7.00800 -60.32415 3511 ft 146 kts 97°
2026-04-27 00:52 7.00656 -60.31400 3510 ft 146 kts 97°
2026-04-27 00:52 7.00514 -60.30385 3509 ft 146 kts 97°
2026-04-27 00:52 7.00372 -60.29370 3511 ft 146 kts 97°
2026-04-27 00:53 7.00230 -60.28356 3510 ft 146 kts 97°
2026-04-27 00:53 7.00087 -60.27343 3507 ft 146 kts 98°
2026-04-27 00:53 6.99945 -60.26329 3510 ft 146 kts 98°
2026-04-27 00:53 6.99802 -60.25317 3509 ft 146 kts 98°
2026-04-27 00:54 6.99660 -60.24304 3511 ft 146 kts 98°
2026-04-27 00:54 6.99517 -60.23294 3511 ft 146 kts 97°
2026-04-27 00:54 6.99374 -60.22281 3508 ft 146 kts 97°
2026-04-27 00:54 6.99233 -60.21266 3509 ft 146 kts 97°
2026-04-27 00:55 6.99091 -60.20252 3514 ft 146 kts 98°
2026-04-27 00:55 6.98947 -60.19237 3510 ft 146 kts 97°
2026-04-27 00:55 6.98804 -60.18222 3507 ft 146 kts 97°
2026-04-27 00:55 6.98662 -60.17208 3506 ft 146 kts 97°
2026-04-27 00:56 6.98519 -60.16194 3509 ft 146 kts 97°
2026-04-27 00:56 6.98377 -60.15182 3504 ft 146 kts 98°
2026-04-27 00:56 6.98283 -60.14512 3504 ft 146 kts 98°
2026-04-27 00:56 6.98091 -60.13159 3508 ft 146 kts 97°
2026-04-27 00:57 6.97996 -60.12488 3508 ft 146 kts 97°
2026-04-27 00:57 6.97809 -60.11148 3506 ft 146 kts 98°
2026-04-27 00:57 6.97666 -60.10136 3510 ft 146 kts 97°
2026-04-27 00:57 6.97522 -60.09121 3508 ft 147 kts 97°
2026-04-27 00:58 6.97379 -60.08105 3509 ft 146 kts 97°
2026-04-27 00:58 6.97283 -60.07420 3508 ft 146 kts 97°
2026-04-27 00:58 6.97139 -60.06401 3509 ft 147 kts 97°
2026-04-27 00:58 6.96996 -60.05379 3509 ft 148 kts 97°
2026-04-27 00:59 6.96850 -60.04356 3510 ft 148 kts 97°
2026-04-27 00:59 6.96708 -60.03346 3506 ft 147 kts 97°
2026-04-27 00:59 6.96566 -60.02326 3505 ft 147 kts 97°
2026-04-27 00:59 6.96421 -60.01307 3506 ft 147 kts 97°
2026-04-27 01:00 6.96276 -60.00292 3503 ft 146 kts 97°
2026-04-27 01:00 6.96134 -59.99280 3503 ft 146 kts 97°
2026-04-27 01:00 6.95991 -59.98264 3498 ft 147 kts 97°
2026-04-27 01:00 6.95848 -59.97244 3506 ft 147 kts 97°
2026-04-27 01:01 6.95704 -59.96223 3509 ft 148 kts 97°
2026-04-27 01:01 6.95559 -59.95200 3503 ft 148 kts 97°
2026-04-27 01:01 6.95414 -59.94178 3503 ft 147 kts 97°
2026-04-27 01:01 6.95270 -59.93158 3508 ft 147 kts 97°
2026-04-27 01:02 6.95127 -59.92137 3507 ft 147 kts 97°
2026-04-27 01:02 6.94983 -59.91121 3506 ft 147 kts 97°
2026-04-27 01:02 6.94838 -59.90104 3505 ft 146 kts 97°
2026-04-27 01:02 6.94697 -59.89094 3507 ft 145 kts 97°
2026-04-27 01:03 6.94554 -59.88086 3508 ft 146 kts 97°
2026-04-27 01:03 6.94411 -59.87076 3509 ft 146 kts 98°
2026-04-27 01:03 6.94268 -59.86065 3504 ft 146 kts 97°
2026-04-27 01:03 6.94124 -59.85051 3508 ft 146 kts 97°
2026-04-27 01:04 6.93981 -59.84037 3505 ft 146 kts 98°
2026-04-27 01:04 6.93838 -59.83024 3503 ft 146 kts 98°
2026-04-27 01:04 6.93696 -59.82013 3502 ft 146 kts 97°
2026-04-27 01:04 6.93551 -59.81001 3505 ft 146 kts 97°
2026-04-27 01:05 6.93408 -59.79990 3505 ft 146 kts 97°
2026-04-27 01:05 6.93265 -59.78978 3504 ft 146 kts 97°
2026-04-27 01:05 6.93124 -59.77983 3505 ft 146 kts 98°
2026-04-27 01:05 6.92982 -59.76974 3504 ft 146 kts 98°
2026-04-27 01:06 6.92839 -59.75965 3504 ft 145 kts 97°
2026-04-27 01:06 6.92696 -59.74970 3502 ft 145 kts 97°
2026-04-27 01:06 6.92560 -59.74000 3508 ft 145 kts 98°
2026-04-27 01:06 6.92414 -59.72965 3508 ft 146 kts 98°
2026-04-27 01:07 6.92269 -59.71953 3510 ft 146 kts 97°
2026-04-27 01:07 6.92126 -59.70941 3508 ft 146 kts 97°
2026-04-27 01:07 6.91983 -59.69934 3507 ft 146 kts 97°
2026-04-27 01:07 6.91841 -59.68926 3509 ft 146 kts 97°
2026-04-27 01:08 6.91697 -59.67912 3507 ft 147 kts 97°
2026-04-27 01:08 6.91553 -59.66896 3509 ft 146 kts 97°
2026-04-27 01:08 6.91409 -59.65882 3506 ft 146 kts 97°
2026-04-27 01:08 6.91265 -59.64870 3506 ft 146 kts 97°
2026-04-27 01:09 6.91123 -59.63857 3505 ft 146 kts 97°
2026-04-27 01:09 6.90979 -59.62845 3506 ft 146 kts 97°
2026-04-27 01:09 6.90833 -59.61830 3511 ft 146 kts 97°
2026-04-27 01:09 6.90692 -59.60830 3510 ft 147 kts 97°
2026-04-27 01:10 6.90549 -59.59816 3508 ft 146 kts 97°
2026-04-27 01:10 6.90405 -59.58806 3509 ft 146 kts 97°
2026-04-27 01:10 6.90261 -59.57795 3509 ft 146 kts 97°
2026-04-27 01:10 6.90118 -59.56786 3508 ft 146 kts 97°
2026-04-27 01:11 6.89974 -59.55777 3509 ft 146 kts 97°
2026-04-27 01:11 6.89834 -59.54789 3510 ft 146 kts 97°
2026-04-27 01:11 6.89692 -59.53792 3509 ft 146 kts 97°
2026-04-27 01:11 6.89550 -59.52783 3509 ft 146 kts 97°
2026-04-27 01:12 6.89406 -59.51775 3510 ft 145 kts 97°
2026-04-27 01:12 6.89262 -59.50776 3509 ft 146 kts 97°
2026-04-27 01:12 6.89119 -59.49763 3506 ft 146 kts 97°
2026-04-27 01:12 6.88975 -59.48749 3507 ft 146 kts 97°
2026-04-27 01:13 6.88830 -59.47736 3506 ft 146 kts 97°
2026-04-27 01:13 6.88687 -59.46725 3507 ft 146 kts 97°
2026-04-27 01:13 6.88545 -59.45714 3506 ft 146 kts 97°
2026-04-27 01:13 6.88400 -59.44703 3507 ft 146 kts 97°
2026-04-27 01:14 6.88255 -59.43692 3505 ft 146 kts 97°
2026-04-27 01:14 6.88112 -59.42680 3507 ft 146 kts 97°
2026-04-27 01:14 6.87968 -59.41668 3511 ft 146 kts 97°
2026-04-27 01:14 6.87823 -59.40654 3510 ft 146 kts 97°
2026-04-27 01:15 6.87679 -59.39641 3507 ft 146 kts 97°
2026-04-27 01:15 6.87535 -59.38630 3511 ft 146 kts 97°
2026-04-27 01:15 6.87392 -59.37620 3508 ft 145 kts 97°
2026-04-27 01:15 6.87247 -59.36613 3512 ft 146 kts 97°
2026-04-27 01:16 6.87103 -59.35602 3511 ft 146 kts 97°
2026-04-27 01:16 6.86959 -59.34589 3507 ft 146 kts 97°
2026-04-27 01:16 6.86814 -59.33575 3508 ft 146 kts 97°
2026-04-27 01:16 6.86671 -59.32565 3508 ft 146 kts 97°
2026-04-27 01:17 6.86528 -59.31558 3508 ft 145 kts 97°
2026-04-27 01:17 6.86384 -59.30550 3506 ft 146 kts 97°
2026-04-27 01:17 6.86239 -59.29542 3509 ft 145 kts 97°
2026-04-27 01:17 6.86094 -59.28535 3508 ft 145 kts 97°
2026-04-27 01:18 6.85952 -59.27530 3507 ft 145 kts 97°
2026-04-27 01:18 6.85810 -59.26526 3504 ft 145 kts 97°
2026-04-27 01:18 6.85666 -59.25523 3505 ft 145 kts 97°
2026-04-27 01:18 6.85523 -59.24522 3503 ft 145 kts 97°
2026-04-27 01:19 6.85380 -59.23518 3505 ft 145 kts 97°
2026-04-27 01:19 6.85237 -59.22515 3506 ft 145 kts 97°
2026-04-27 01:19 6.85094 -59.21516 3502 ft 144 kts 97°
2026-04-27 01:19 6.84952 -59.20517 3505 ft 144 kts 97°
2026-04-27 01:20 6.84809 -59.19521 3501 ft 144 kts 97°
2026-04-27 01:20 6.84665 -59.18521 3504 ft 144 kts 97°
2026-04-27 01:20 6.84522 -59.17520 3501 ft 144 kts 97°
2026-04-27 01:20 6.84380 -59.16523 3505 ft 144 kts 97°
2026-04-27 01:21 6.84238 -59.15525 3503 ft 144 kts 97°
2026-04-27 01:21 6.84095 -59.14525 3488 ft 146 kts 97°
2026-04-27 01:21 6.83950 -59.13515 3485 ft 145 kts 97°
2026-04-27 01:21 6.83806 -59.12511 3485 ft 145 kts 97°
2026-04-27 01:22 6.83666 -59.11525 3483 ft 144 kts 97°
2026-04-27 01:22 6.83522 -59.10516 3486 ft 144 kts 97°
2026-04-27 01:22 6.83380 -59.09533 3486 ft 144 kts 97°
2026-04-27 01:22 6.83234 -59.08521 3482 ft 144 kts 97°
2026-04-27 01:23 6.83093 -59.07529 3484 ft 143 kts 97°
2026-04-27 01:23 6.82955 -59.06549 3483 ft 143 kts 97°
2026-04-27 01:23 6.82813 -59.05556 3478 ft 143 kts 97°
2026-04-27 01:23 6.82670 -59.04569 3476 ft 142 kts 97°
2026-04-27 01:24 6.82529 -59.03585 3478 ft 142 kts 97°
2026-04-27 01:24 6.82387 -59.02595 3482 ft 143 kts 97°
2026-04-27 01:24 6.82246 -59.01603 3481 ft 143 kts 97°
2026-04-27 01:24 6.82103 -59.00611 3481 ft 143 kts 97°
2026-04-27 01:25 6.81961 -58.99615 3482 ft 144 kts 97°
2026-04-27 01:25 6.81817 -58.98612 3483 ft 145 kts 97°
2026-04-27 01:25 6.81673 -58.97608 3481 ft 145 kts 97°
2026-04-27 01:25 6.81529 -58.96605 3479 ft 145 kts 97°
2026-04-27 01:26 6.81386 -58.95605 3481 ft 144 kts 97°
2026-04-27 01:26 6.81243 -58.94605 3484 ft 144 kts 97°
2026-04-27 01:26 6.81100 -58.93606 3485 ft 145 kts 97°
2026-04-27 01:26 6.80955 -58.92607 3481 ft 144 kts 97°
2026-04-27 01:27 6.80812 -58.91606 3481 ft 144 kts 96°
2026-04-27 01:27 6.80670 -58.90606 3482 ft 145 kts 97°
2026-04-27 01:27 6.80526 -58.89604 3481 ft 145 kts 97°
2026-04-27 01:27 6.80382 -58.88603 3480 ft 144 kts 97°
2026-04-27 01:28 6.80238 -58.87604 3485 ft 144 kts 97°
2026-04-27 01:28 6.80095 -58.86605 3480 ft 144 kts 97°
2026-04-27 01:28 6.79951 -58.85604 3481 ft 145 kts 97°
2026-04-27 01:28 6.79806 -58.84598 3481 ft 145 kts 97°
2026-04-27 01:29 6.79662 -58.83593 3482 ft 145 kts 96°
2026-04-27 01:29 6.79517 -58.82587 3479 ft 145 kts 97°
2026-04-27 01:29 6.79374 -58.81583 3483 ft 145 kts 97°
2026-04-27 01:29 6.79229 -58.80576 3482 ft 145 kts 97°
2026-04-27 01:30 6.79084 -58.79571 3484 ft 145 kts 96°
2026-04-27 01:30 6.78938 -58.78563 3479 ft 145 kts 96°
2026-04-27 01:30 6.78794 -58.77554 3478 ft 145 kts 96°
2026-04-27 01:30 6.78652 -58.76561 3479 ft 145 kts 97°
2026-04-27 01:31 6.78508 -58.75555 3479 ft 145 kts 97°
2026-04-27 01:31 6.78362 -58.74548 3478 ft 146 kts 96°
2026-04-27 01:31 6.78217 -58.73541 3477 ft 145 kts 97°
2026-04-27 01:31 6.78073 -58.72534 3474 ft 145 kts 97°
2026-04-27 01:32 6.77926 -58.71518 3477 ft 145 kts 97°
2026-04-27 01:32 6.77784 -58.70531 3477 ft 144 kts 97°
2026-04-27 01:32 6.77640 -58.69531 3474 ft 145 kts 97°
2026-04-27 01:32 6.77494 -58.68529 3478 ft 145 kts 98°
2026-04-27 01:33 6.77148 -58.67578 3475 ft 147 kts 119°
2026-04-27 01:33 6.76437 -58.66830 3478 ft 151 kts 140°
2026-04-27 01:33 6.75519 -58.66298 3474 ft 153 kts 146°
2026-04-27 01:33 6.74601 -58.65764 3477 ft 152 kts 144°
2026-04-27 01:34 6.73699 -58.65208 3476 ft 152 kts 143°
2026-04-27 01:34 6.72802 -58.64648 3478 ft 152 kts 144°
2026-04-27 01:34 6.71901 -58.64090 3476 ft 152 kts 144°
2026-04-27 01:34 6.70999 -58.63539 3476 ft 152 kts 144°
2026-04-27 01:35 6.70096 -58.62986 3472 ft 152 kts 144°
2026-04-27 01:35 6.69196 -58.62435 3476 ft 151 kts 144°
2026-04-27 01:35 6.68293 -58.61883 3473 ft 152 kts 144°
2026-04-27 01:35 6.67389 -58.61329 3472 ft 152 kts 144°
2026-04-27 01:36 6.66495 -58.60781 3473 ft 153 kts 144°
2026-04-27 01:36 6.65574 -58.60218 3473 ft 153 kts 144°
2026-04-27 01:36 6.64664 -58.59663 3476 ft 153 kts 144°
2026-04-27 01:36 6.63767 -58.59114 3471 ft 153 kts 144°
2026-04-27 01:37 6.62856 -58.58556 3477 ft 154 kts 144°
2026-04-27 01:37 6.61942 -58.57998 3475 ft 154 kts 144°
2026-04-27 01:37 6.61028 -58.57441 3475 ft 153 kts 144°
2026-04-27 01:37 6.60117 -58.56882 3477 ft 153 kts 144°
2026-04-27 01:38 6.59207 -58.56324 3478 ft 153 kts 144°
2026-04-27 01:38 6.58296 -58.55767 3479 ft 153 kts 144°
2026-04-27 01:38 6.57387 -58.55213 3478 ft 153 kts 144°
2026-04-27 01:38 6.56476 -58.54655 3480 ft 154 kts 144°
2026-04-27 01:39 6.55563 -58.54095 3481 ft 154 kts 144°
2026-04-27 01:39 6.54647 -58.53536 3481 ft 154 kts 144°
2026-04-27 01:39 6.53730 -58.52977 3485 ft 154 kts 144°
2026-04-27 01:39 6.52813 -58.52416 3485 ft 154 kts 144°
2026-04-27 01:40 6.51898 -58.51856 3485 ft 154 kts 144°
2026-04-27 01:40 6.50985 -58.51299 3484 ft 153 kts 144°
2026-04-27 01:40 6.50074 -58.50741 3485 ft 154 kts 144°
2026-04-27 01:40 6.49160 -58.50181 3486 ft 154 kts 144°
2026-04-27 01:41 6.48246 -58.49623 3486 ft 154 kts 144°
2026-04-27 01:41 6.47329 -58.49065 3487 ft 154 kts 144°
2026-04-27 01:41 6.46412 -58.48504 3486 ft 154 kts 144°
2026-04-27 01:41 6.45494 -58.47941 3489 ft 155 kts 144°
2026-04-27 01:42 6.44573 -58.47377 3490 ft 155 kts 144°
2026-04-27 01:42 6.43652 -58.46816 3486 ft 155 kts 144°
2026-04-27 01:42 6.42770 -58.46208 3488 ft 152 kts 133°
2026-04-27 01:42 6.42288 -58.45700 3486 ft 152 kts 129°
2026-04-27 01:43 6.41559 -58.44929 3489 ft 152 kts 131°
2026-04-27 01:43 6.40801 -58.44181 3488 ft 153 kts 132°
2026-04-27 01:43 6.40037 -58.43433 3492 ft 153 kts 131°
2026-04-27 01:43 6.39277 -58.42679 3483 ft 154 kts 131°
2026-04-27 01:44 6.38505 -58.41906 3386 ft 158 kts 131°
2026-04-27 01:44 6.37738 -58.41135 3240 ft 154 kts 129°
2026-04-27 01:44 6.37177 -58.40259 3097 ft 145 kts 107°
2026-04-27 01:44 6.37014 -58.39290 2967 ft 138 kts 87°
2026-04-27 01:45 6.37196 -58.38363 2838 ft 134 kts 69°
2026-04-27 01:45 6.37714 -58.37612 2715 ft 132 kts 43°
2026-04-27 01:45 6.38373 -58.36989 2598 ft 128 kts 48°
2026-04-27 01:45 6.38980 -58.36368 2474 ft 120 kts 47°
2026-04-27 01:46 6.39546 -58.35785 2360 ft 113 kts 48°
2026-04-27 01:46 6.40086 -58.35237 2259 ft 108 kts 47°
2026-04-27 01:46 6.40611 -58.34707 2156 ft 106 kts 47°
2026-04-27 01:46 6.41131 -58.34184 2058 ft 105 kts 47°
2026-04-27 01:47 6.41640 -58.33677 1963 ft 101 kts 47°
2026-04-27 01:47 6.42126 -58.33187 1900 ft 98 kts 47°
2026-04-27 01:47 6.42613 -58.32697 1775 ft 101 kts 47°
2026-04-27 01:47 6.43106 -58.32203 1649 ft 95 kts 47°
2026-04-27 01:48 6.43538 -58.31771 1528 ft 82 kts 47°
2026-04-27 01:48 6.43943 -58.31365 1424 ft 82 kts 47°
2026-04-27 01:48 6.44349 -58.30959 1318 ft 82 kts 47°
2026-04-27 01:48 6.44756 -58.30549 1208 ft 83 kts 47°
2026-04-27 01:49 6.45148 -58.30153 1104 ft 78 kts 47°
2026-04-27 01:49 6.45531 -58.29767 1007 ft 78 kts 47°
2026-04-27 01:49 6.45921 -58.29374 915 ft 80 kts 46°
2026-04-27 01:49 6.46314 -58.28978 812 ft 80 kts 45°
2026-04-27 01:50 6.46714 -58.28573 711 ft 84 kts 44°
2026-04-27 01:50 6.47131 -58.28161 597 ft 83 kts 44°
2026-04-27 01:50 6.47530 -58.27757 492 ft 81 kts 44°
2026-04-27 01:50 6.47931 -58.27357 384 ft 82 kts 44°
2026-04-27 01:51 6.48324 -58.26958 334 ft 78 kts 45°
2026-04-27 01:51 6.48698 -58.26540 310 ft 83 kts 46°
2026-04-27 01:51 6.49091 -58.26161 182 ft 79 kts 42°
2026-04-27 01:51 6.49482 -58.25777 87 ft 72 kts 45°
2026-04-27 01:52 6.49721 -58.25540 84 ft 34 kts 43°
2026-04-27 01:52 6.49882 -58.25385 82 ft 31 kts 44°
2026-04-27 01:52 6.50034 -58.25234 76 ft 30 kts 45°
2026-04-27 01:52 6.50128 -58.25186 69 ft 10 kts 316°
2026-04-27 01:53 6.50143 -58.25200 76 ft 0 kts 315°
2026-04-27 01:53 6.50148 -58.25205 76 ft 5 kts 314°
2026-04-27 01:53 6.50192 -58.25249 76 ft 13 kts 314°
2026-04-27 01:53 6.50265 -58.25305 76 ft 11 kts 324°
2026-04-27 01:54 6.50294 -58.25270 74 ft 15 kts 117°
2026-04-27 01:54 6.50316 -58.25196 74 ft 8 kts
2026-04-27 01:54 6.50354 -58.25230 75 ft 0 kts 314°